Tracking 31027 objects as of 19-Jul-2025
HD Live streaming from Space Station
objects crossing your sky now

THORAD AGENA D DEB

Track THORAD AGENA D DEB now!
10-day predictions


NORAD ID: 5690
Int'l Code: 1970-025LV
Perigee: 1,037.4 km
Apogee: 1,110.3 km
Inclination: 100.2 °
Period: 106.5 minutes
Semi major axis: 7444 km
RCS: 0.0072 m2 (small)
Launch date: April 8, 1970
Source: United States (US)
Launch site: AIR FORCE WESTERN TEST RANGE (AFWTR)

Note: This is SATELLITE DEBRIS
Your satellite tracking list
SL-14 DEB
Track 1 satellite(s)




NASA's NSSDC Master Catalog

Two Line Element Set (TLE):
1 05690U 70025LV  25199.48302786  .00000043  00000-0  13665-3 0  9999
2 05690 100.1935 201.3103 0048930 173.0900 341.1897 13.51516329721307
Source of the keplerian elements: AFSPC